^^
Station Historical Data
Daily Summary for October 15, 2021 Units:  English    Metric   Both
Daily Weekly Monthly Yearly
  High: Low: Average:
Temperature: 64.3 °F 58.6 °F 61.2 °F
Dew Point: 56.8 °F 52.4 °F 54.4 °F
Humidity: 88% 70% 79%
Wind Speed: 4mph 0mph 1.3mph
Wind Gust: 5mph - -
Wind- - South
Pressure: 29.87 in 29.72 in -
Precipitation: 0.11 in    
 
 
Tabular Data for October 15, 2021
Time Temperature Dew Point Pressure Wind Wind Speed Wind Gust Humidity Rainfall Rate (Hourly) solar
00:00 62.5 °F 54.5 °F 29.85 in WNW 4 mph 4 mph 75% 0.00 in 0 W/m2
00:05 62.4 °F 54.7 °F 29.85 in WNW 4 mph 4 mph 76% 0.00 in 0 W/m2
00:10 62.3 °F 54.6 °F 29.85 in SW 3 mph 5 mph 76% 0.00 in 0 W/m2
00:15 62.2 °F 54.5 °F 29.85 in NW 4 mph 5 mph 76% 0.00 in 0 W/m2
00:20 62.1 °F 54.8 °F 29.85 in WNW 3 mph 5 mph 77% 0.00 in 0 W/m2
00:25 62 °F 54.3 °F 29.85 in WSW 2 mph 5 mph 76% 0.00 in 0 W/m2
00:30 61.9 °F 54.2 °F 29.85 in West 3 mph 3 mph 76% 0.00 in 0 W/m2
00:35 61.8 °F 54.2 °F 29.85 in WNW 3 mph 3 mph 76% 0.00 in 0 W/m2
00:40 61.7 °F 54.4 °F 29.85 in WNW 2 mph 2 mph 77% 0.00 in 0 W/m2
00:45 61.7 °F 54.4 °F 29.84 in WNW 2 mph 2 mph 77% 0.00 in 0 W/m2
00:50 61.6 °F 54.3 °F 29.84 in NNW 2 mph 2 mph 77% 0.00 in 0 W/m2
00:55 61.5 °F 54.2 °F 29.85 in NE 2 mph 2 mph 77% 0.00 in 0 W/m2
01:00 61.4 °F 54.1 °F 29.84 in WSW 2 mph 2 mph 77% 0.00 in 0 W/m2
01:05 61.3 °F 54 °F 29.84 in WNW 2 mph 2 mph 77% 0.00 in 0 W/m2
01:10 61.2 °F 53.9 °F 29.84 in WSW 2 mph 2 mph 77% 0.00 in 0 W/m2
01:15 61.2 °F 53.9 °F 29.85 in WSW 2 mph 2 mph 77% 0.00 in 0 W/m2
01:20 61.1 °F 53.8 °F 29.85 in NW 2 mph 2 mph 77% 0.00 in 0 W/m2
01:25 61 °F 53.7 °F 29.85 in WSW 2 mph 2 mph 77% 0.00 in 0 W/m2
01:30 60.9 °F 53.6 °F 29.85 in WNW 2 mph 2 mph 77% 0.00 in 0 W/m2
01:35 60.8 °F 53.5 °F 29.85 in West 2 mph 5 mph 77% 0.00 in 0 W/m2
01:40 60.7 °F 53.4 °F 29.85 in West 2 mph 2 mph 77% 0.00 in 0 W/m2
01:45 60.6 °F 53.7 °F 29.85 in WSW 2 mph 2 mph 78% 0.00 in 0 W/m2
01:50 60.5 °F 53.3 °F 29.85 in SW 2 mph 3 mph 77% 0.00 in 0 W/m2
01:55 60.4 °F 53.2 °F 29.85 in SW 2 mph 3 mph 77% 0.00 in 0 W/m2
02:00 60.3 °F 53.1 °F 29.84 in NW 2 mph 3 mph 77% 0.00 in 0 W/m2
02:05 60.3 °F 52.7 °F 29.84 in WSW 2 mph 3 mph 76% 0.00 in 0 W/m2
02:10 60.2 °F 52.6 °F 29.85 in West 2 mph 2 mph 76% 0.00 in 0 W/m2
02:15 60.1 °F 52.5 °F 29.85 in NW 2 mph 2 mph 76% 0.00 in 0 W/m2
02:20 60.1 °F 52.5 °F 29.85 in NW 2 mph 3 mph 76% 0.00 in 0 W/m2
02:25 60.1 °F 52.5 °F 29.85 in WSW 2 mph 3 mph 76% 0.00 in 0 W/m2
02:30 60.1 °F 52.5 °F 29.85 in NW 2 mph 3 mph 76% 0.00 in 0 W/m2
02:35 60 °F 52.4 °F 29.85 in WSW 2 mph 3 mph 76% 0.00 in 0 W/m2
02:40 60 °F 52.4 °F 29.85 in NW 2 mph 2 mph 76% 0.00 in 0 W/m2
02:45 60 °F 52.4 °F 29.86 in WNW 2 mph 3 mph 76% 0.00 in 0 W/m2
02:50 60 °F 52.4 °F 29.86 in NNW 2 mph 2 mph 76% 0.00 in 0 W/m2
02:55 60 °F 52.8 °F 29.86 in NNW 2 mph 2 mph 77% 0.00 in 0 W/m2
03:00 60 °F 52.8 °F 29.85 in WSW 2 mph 2 mph 77% 0.00 in 0 W/m2
03:05 60 °F 52.4 °F 29.85 in NNW 2 mph 2 mph 76% 0.00 in 0 W/m2
03:10 60 °F 52.4 °F 29.85 in WNW 2 mph 2 mph 76% 0.00 in 0 W/m2
03:15 60 °F 52.4 °F 29.85 in WSW 2 mph 2 mph 76% 0.00 in 0 W/m2
03:20 60.1 °F 52.5 °F 29.85 in West 2 mph 2 mph 76% 0.00 in 0 W/m2
03:25 60 °F 52.8 °F 29.86 in WSW 2 mph 3 mph 77% 0.00 in 0 W/m2
03:30 60 °F 52.8 °F 29.86 in WSW 2 mph 3 mph 77% 0.00 in 0 W/m2
03:35 60 °F 52.8 °F 29.86 in NE 2 mph 3 mph 77% 0.00 in 0 W/m2
03:40 60 °F 52.8 °F 29.86 in WSW 2 mph 2 mph 77% 0.00 in 0 W/m2
03:45 60 °F 52.8 °F 29.86 in WNW 3 mph 3 mph 77% 0.00 in 0 W/m2
03:50 60 °F 52.8 °F 29.86 in WNW 3 mph 3 mph 77% 0.00 in 0 W/m2
03:55 60.1 °F 52.9 °F 29.86 in NW 2 mph 3 mph 77% 0.00 in 0 W/m2
04:00 60.1 °F 52.9 °F 29.85 in WNW 3 mph 3 mph 77% 0.00 in 0 W/m2
04:05 60.1 °F 52.9 °F 29.85 in NW 2 mph 3 mph 77% 0.00 in 0 W/m2
04:10 60.2 °F 52.6 °F 29.85 in NNW 2 mph 2 mph 76% 0.00 in 0 W/m2
04:15 60.2 °F 52.6 °F 29.85 in West 2 mph 2 mph 76% 0.00 in 0 W/m2
04:20 60.2 °F 52.6 °F 29.85 in WSW 2 mph 2 mph 76% 0.00 in 0 W/m2
04:25 60.2 °F 52.6 °F 29.84 in WNW 2 mph 2 mph 76% 0.00 in 0 W/m2
04:30 60.2 °F 53 °F 29.84 in NW 2 mph 3 mph 77% 0.00 in 0 W/m2
04:35 60.3 °F 53.1 °F 29.85 in West 2 mph 3 mph 77% 0.00 in 0 W/m2
04:40 60.3 °F 53.1 °F 29.85 in WNW 2 mph 2 mph 77% 0.00 in 0 W/m2
04:45 60.3 °F 53.1 °F 29.86 in SE 2 mph 2 mph 77% 0.00 in 0 W/m2
04:50 60.3 °F 53.1 °F 29.85 in NW 2 mph 2 mph 77% 0.00 in 0 W/m2
04:55 60.3 °F 53.1 °F 29.85 in SW 2 mph 2 mph 77% 0.00 in 0 W/m2
05:00 60.3 °F 53.1 °F 29.84 in West 1 mph 1 mph 77% 0.00 in 0 W/m2
05:05 60.3 °F 53.1 °F 29.84 in West 1 mph 1 mph 77% 0.00 in 0 W/m2
05:10 60.3 °F 53.1 °F 29.85 in WNW 1 mph 1 mph 77% 0.00 in 0 W/m2
05:15 60.3 °F 53.4 °F 29.85 in NW 1 mph 3 mph 78% 0.00 in 0 W/m2
05:20 60.3 °F 53.4 °F 29.85 in NW 1 mph 1 mph 78% 0.00 in 0 W/m2
05:25 60.2 °F 53.3 °F 29.84 in East 1 mph 1 mph 78% 0.00 in 0 W/m2
05:30 60.2 °F 53.3 °F 29.85 in NE 1 mph 1 mph 78% 0.00 in 0 W/m2
05:35 60.2 °F 53.3 °F 29.84 in Calm   1 mph 78% 0.00 in 0 W/m2
05:40 60.1 °F 53.6 °F 29.85 in Calm     79% 0.00 in 0 W/m2
05:45 60.1 °F 53.6 °F 29.85 in NE 1 mph 1 mph 79% 0.00 in 0 W/m2
05:50 60 °F 53.5 °F 29.85 in Calm     79% 0.00 in 0 W/m2
05:55 59.9 °F 53.4 °F 29.86 in Calm     79% 0.00 in 0 W/m2
06:00 59.8 °F 53.3 °F 29.85 in Calm     79% 0.00 in 0 W/m2
06:05 59.7 °F 53.2 °F 29.85 in Calm   1 mph 79% 0.00 in 0 W/m2
06:10 59.5 °F 53 °F 29.85 in Calm     79% 0.00 in 0 W/m2
06:15 59.4 °F 52.9 °F 29.85 in Calm     79% 0.00 in 0 W/m2
06:20 59.1 °F 52.6 °F 29.85 in Calm     79% 0.00 in 0 W/m2
06:25 59.1 °F 52.6 °F 29.85 in Calm     79% 0.00 in 0 W/m2
06:30 58.9 °F 52.4 °F 29.86 in Calm     79% 0.00 in 0 W/m2
06:35 58.8 °F 52.6 °F 29.86 in Calm     80% 0.00 in 0 W/m2
06:40 58.7 °F 52.5 °F 29.85 in Calm   1 mph 80% 0.00 in 0 W/m2
06:45 58.7 °F 52.5 °F 29.86 in Calm   1 mph 80% 0.00 in 0 W/m2
06:50 58.6 °F 52.4 °F 29.86 in Calm   1 mph 80% 0.00 in 0 W/m2
06:55 58.8 °F 53.6 °F 29.86 in Calm   1 mph 83% 0.00 in 0 W/m2
07:00 59.1 °F 54.6 °F 29.86 in Calm     85% 0.00 in 0 W/m2
07:05 59.5 °F 55.6 °F 29.86 in Calm     87% 0.00 in 0 W/m2
07:10 59.6 °F 55.7 °F 29.86 in Calm   1 mph 87% 0.00 in 0 W/m2
07:15 59.6 °F 56 °F 29.87 in East 1 mph 1 mph 88% 0.00 in 0 W/m2
07:20 59.6 °F 56 °F 29.86 in NE 1 mph 1 mph 88% 0.00 in 0 W/m2
07:25 59.7 °F 56.1 °F 29.86 in Calm   1 mph 88% 0.00 in 0 W/m2
07:30 59.7 °F 56.1 °F 29.86 in Calm     88% 0.00 in 0 W/m2
07:35 59.7 °F 56.1 °F 29.86 in Calm   1 mph 88% 0.00 in 0 W/m2
07:40 59.6 °F 56 °F 29.86 in Calm     88% 0.00 in 0 W/m2
07:45 59.6 °F 56 °F 29.86 in Calm     88% 0.00 in 0 W/m2
07:50 59.5 °F 55.9 °F 29.85 in Calm   1 mph 88% 0.00 in 0 W/m2
07:55 59.5 °F 55.9 °F 29.86 in Calm   1 mph 88% 0.00 in 0 W/m2
08:00 59.4 °F 55.8 °F 29.86 in Calm     88% 0.00 in 0 W/m2
08:05 59.4 °F 55.8 °F 29.87 in Calm     88% 0.00 in 5 W/m2
08:10 59.4 °F 55.8 °F 29.87 in Calm     88% 0.00 in 7 W/m2
08:15 59.3 °F 55.7 °F 29.86 in Calm     88% 0.00 in 12 W/m2
08:20 59.3 °F 55.7 °F 29.86 in Calm   1 mph 88% 0.00 in 9 W/m2
08:25 59.3 °F 55.7 °F 29.87 in Calm   1 mph 88% 0.00 in 9 W/m2
08:30 59.1 °F 55.2 °F 29.87 in NW 1 mph 1 mph 87% 0.00 in 11 W/m2
08:35 59.1 °F 55.2 °F 29.87 in NW 1 mph 2 mph 87% 0.00 in 12 W/m2
08:40 59 °F 55.1 °F 29.87 in NNW 1 mph 1 mph 87% 0.00 in 12 W/m2
08:45 58.8 °F 54.6 °F 29.87 in NNW 2 mph 2 mph 86% 0.00 in 21 W/m2
08:50 58.8 °F 54.6 °F 29.87 in West 2 mph 2 mph 86% 0.00 in 30 W/m2
08:55 58.8 °F 54.6 °F 29.87 in NNE 1 mph 2 mph 86% 0.00 in 12 W/m2
09:00 58.8 °F 54.3 °F 29.87 in NNW 1 mph 1 mph 85% 0.00 in 14 W/m2
09:05 58.8 °F 54.3 °F 29.87 in NNW 1 mph 1 mph 85% 0.00 in 12 W/m2
09:10 58.8 °F 54.3 °F 29.87 in NNW 1 mph 3 mph 85% 0.00 in 21 W/m2
09:15 58.9 °F 54.4 °F 29.86 in North 2 mph 3 mph 85% 0.00 in 18 W/m2
09:20 59 °F 54.5 °F 29.87 in NW 1 mph 2 mph 85% 0.00 in 26 W/m2
09:25 59 °F 54.5 °F 29.86 in NW 1 mph 3 mph 85% 0.00 in 40 W/m2
09:30 59.1 °F 54.3 °F 29.86 in SSW 1 mph 1 mph 84% 0.00 in 60 W/m2
09:35 59.1 °F 54.3 °F 29.86 in NE 1 mph 1 mph 84% 0.00 in 63 W/m2
09:40 59.2 °F 54 °F 29.86 in WNW 1 mph 1 mph 83% 0.00 in 88 W/m2
09:45 59.3 °F 54.1 °F 29.85 in South 1 mph 1 mph 83% 0.00 in 100 W/m2
09:50 59.4 °F 54.2 °F 29.86 in North 1 mph 1 mph 83% 0.00 in 116 W/m2
09:55 59.5 °F 54.3 °F 29.86 in ENE 1 mph 1 mph 83% 0.00 in 118 W/m2
10:00 59.6 °F 54.4 °F 29.85 in East 1 mph 1 mph 83% 0.00 in 155 W/m2
10:05 59.8 °F 54.6 °F 29.85 in East 1 mph 1 mph 83% 0.00 in 127 W/m2
10:10 60 °F 54.2 °F 29.85 in NW 1 mph 1 mph 81% 0.00 in 148 W/m2
10:15 60.1 °F 54.2 °F 29.85 in ENE 1 mph 1 mph 81% 0.00 in 113 W/m2
10:20 60.2 °F 54.3 °F 29.85 in North 1 mph 1 mph 81% 0.00 in 123 W/m2
10:25 60.4 °F 54.2 °F 29.85 in East 1 mph 1 mph 80% 0.00 in 123 W/m2
10:30 60.5 °F 54.3 °F 29.86 in ESE 1 mph 1 mph 80% 0.00 in 100 W/m2
10:35 60.7 °F 54.1 °F 29.86 in NE 1 mph 1 mph 79% 0.00 in 141 W/m2
10:40 60.7 °F 53.8 °F 29.85 in East 1 mph 1 mph 78% 0.00 in 165 W/m2
10:45 60.9 °F 54 °F 29.85 in East 1 mph 2 mph 78% 0.00 in 151 W/m2
10:50 61 °F 54.1 °F 29.85 in NE 1 mph 1 mph 78% 0.00 in 155 W/m2
10:55 61.2 °F 54.3 °F 29.85 in ENE 1 mph 1 mph 78% 0.00 in 176 W/m2
11:00 61.3 °F 54.4 °F 29.85 in East 1 mph 2 mph 78% 0.00 in 172 W/m2
11:05 61.4 °F 54.5 °F 29.85 in NE 1 mph 2 mph 78% 0.00 in 155 W/m2
11:10 61.6 °F 54.7 °F 29.85 in East 1 mph 2 mph 78% 0.00 in 127 W/m2
11:15 61.7 °F 54.8 °F 29.85 in North 1 mph 2 mph 78% 0.00 in 155 W/m2
11:20 61.8 °F 54.2 °F 29.85 in West 1 mph 1 mph 76% 0.00 in 178 W/m2
11:25 61.9 °F 54.6 °F 29.84 in NE 1 mph 2 mph 77% 0.00 in 153 W/m2
11:30 62 °F 54.3 °F 29.84 in ENE 2 mph 2 mph 76% 0.00 in 146 W/m2
11:35 62 °F 54.3 °F 29.84 in NE 1 mph 2 mph 76% 0.00 in 153 W/m2
11:40 62.1 °F 54.4 °F 29.84 in South 1 mph 1 mph 76% 0.00 in 132 W/m2
11:45 62.2 °F 54.9 °F 29.84 in NE 1 mph 1 mph 77% 0.00 in 167 W/m2
11:50 62.2 °F 54.5 °F 29.84 in ESE 1 mph 1 mph 76% 0.00 in 186 W/m2
11:55 62.2 °F 54.9 °F 29.84 in SSE 1 mph 1 mph 77% 0.00 in 186 W/m2
12:00 62.3 °F 55 °F 29.84 in ENE 1 mph 1 mph 77% 0.00 in 229 W/m2
12:05 62.3 °F 55 °F 29.83 in East 1 mph 2 mph 77% 0.00 in 230 W/m2
12:10 62.4 °F 55.1 °F 29.83 in SE 2 mph 2 mph 77% 0.00 in 244 W/m2
12:15 62.5 °F 55.2 °F 29.83 in ENE 2 mph 2 mph 77% 0.00 in 200 W/m2
12:20 62.6 °F 54.9 °F 29.83 in SE 2 mph 2 mph 76% 0.00 in 174 W/m2
12:25 62.7 °F 55.4 °F 29.83 in NE 1 mph 2 mph 77% 0.00 in 178 W/m2
12:30 62.8 °F 55.5 °F 29.83 in ENE 1 mph 1 mph 77% 0.00 in 209 W/m2
12:35 62.8 °F 55.5 °F 29.83 in East 1 mph 1 mph 77% 0.00 in 181 W/m2
12:40 62.8 °F 55.1 °F 29.83 in ESE 1 mph 2 mph 76% 0.00 in 341 W/m2
12:45 62.9 °F 55.9 °F 29.83 in ESE 1 mph 2 mph 78% 0.00 in 454 W/m2
12:50 62.9 °F 55.2 °F 29.83 in ESE 1 mph 3 mph 76% 0.00 in 323 W/m2
12:55 62.9 °F 54.9 °F 29.83 in ESE 1 mph 3 mph 75% 0.00 in 292 W/m2
13:00 62.9 °F 54.5 °F 29.83 in SE 1 mph 2 mph 74% 0.00 in 253 W/m2
13:05 62.9 °F 54.9 °F 29.83 in ESE 1 mph 2 mph 75% 0.00 in 257 W/m2
13:10 63 °F 55.3 °F 29.82 in ESE 1 mph 1 mph 76% 0.00 in 267 W/m2
13:15 63 °F 55.7 °F 29.82 in SE 2 mph 2 mph 77% 0.00 in 220 W/m2
13:20 63.1 °F 55.4 °F 29.82 in ESE 2 mph 2 mph 76% 0.00 in 251 W/m2
13:25 63.1 °F 55.8 °F 29.81 in ESE 2 mph 2 mph 77% 0.00 in 285 W/m2
13:30 63.2 °F 55.5 °F 29.82 in SSE 2 mph 2 mph 76% 0.00 in 225 W/m2
13:35 63.2 °F 55.5 °F 29.81 in East 1 mph 2 mph 76% 0.00 in 186 W/m2
13:40 63.3 °F 55.6 °F 29.81 in East 1 mph 1 mph 76% 0.00 in 162 W/m2
13:45 63.2 °F 55.1 °F 29.81 in SE 1 mph 1 mph 75% 0.00 in 248 W/m2
13:50 63.1 °F 54.3 °F 29.81 in West 1 mph 1 mph 73% 0.00 in 250 W/m2
13:55 63.1 °F 54.7 °F 29.81 in NW 1 mph 1 mph 74% 0.00 in 206 W/m2
14:00 63.1 °F 54.3 °F 29.80 in ESE 1 mph 2 mph 73% 0.00 in 186 W/m2
14:05 63.1 °F 54.3 °F 29.80 in SSE 1 mph 2 mph 73% 0.00 in 207 W/m2
14:10 63.1 °F 54.7 °F 29.79 in East 2 mph 2 mph 74% 0.00 in 209 W/m2
14:15 63.2 °F 54.8 °F 29.79 in ESE 2 mph 2 mph 74% 0.00 in 179 W/m2
14:20 63.2 °F 54.8 °F 29.79 in ESE 2 mph 2 mph 74% 0.00 in 200 W/m2
14:25 63.3 °F 54.9 °F 29.79 in SE 1 mph 2 mph 74% 0.00 in 172 W/m2
14:30 63.3 °F 54.5 °F 29.79 in ESE 1 mph 1 mph 73% 0.00 in 225 W/m2
14:35 63.4 °F 54.6 °F 29.78 in SE 1 mph 1 mph 73% 0.00 in 399 W/m2
14:40 63.7 °F 54.5 °F 29.78 in SE 2 mph 4 mph 72% 0.00 in 568 W/m2
14:45 63.7 °F 54.5 °F 29.78 in SE 2 mph 4 mph 72% 0.00 in 227 W/m2
14:50 63.8 °F 54.6 °F 29.78 in East 1 mph 2 mph 72% 0.00 in 237 W/m2
14:55 63.7 °F 54.5 °F 29.78 in SSE 2 mph 2 mph 72% 0.00 in 229 W/m2
15:00 63.8 °F 54.6 °F 29.78 in SE 1 mph 1 mph 72% 0.00 in 309 W/m2
15:05 63.8 °F 54.6 °F 29.78 in SSW 1 mph 1 mph 72% 0.00 in 200 W/m2
15:10 63.9 °F 54.7 °F 29.78 in ESE 1 mph 1 mph 72% 0.00 in 213 W/m2
15:15 63.9 °F 54.3 °F 29.78 in ESE 1 mph 1 mph 71% 0.00 in 294 W/m2
15:20 63.9 °F 54.3 °F 29.78 in NE 1 mph 1 mph 71% 0.00 in 121 W/m2
15:25 63.9 °F 54.7 °F 29.78 in SE 1 mph 1 mph 72% 0.00 in 230 W/m2
15:30 63.8 °F 54.6 °F 29.78 in East 1 mph 1 mph 72% 0.00 in 221 W/m2
15:35 63.8 °F 54.2 °F 29.77 in ESE 1 mph 1 mph 71% 0.00 in 251 W/m2
15:40 63.8 °F 54.2 °F 29.77 in NW 1 mph 1 mph 71% 0.00 in 188 W/m2
15:45 63.8 °F 54.2 °F 29.77 in ESE 2 mph 2 mph 71% 0.00 in 533 W/m2
15:50 63.8 °F 54.2 °F 29.77 in ESE 1 mph 1 mph 71% 0.00 in 237 W/m2
15:55 63.9 °F 54.3 °F 29.76 in East 2 mph 2 mph 71% 0.00 in 190 W/m2
16:00 63.9 °F 53.9 °F 29.76 in ENE 1 mph 1 mph 70% 0.00 in 376 W/m2
16:05 63.9 °F 54.3 °F 29.76 in East 1 mph 2 mph 71% 0.00 in 448 W/m2
16:10 64 °F 54.4 °F 29.77 in East 1 mph 1 mph 71% 0.00 in 132 W/m2
16:15 64 °F 54.4 °F 29.77 in East 1 mph 1 mph 71% 0.00 in 118 W/m2
16:20 64 °F 54.4 °F 29.77 in NE 1 mph 1 mph 71% 0.00 in 95 W/m2
16:25 64 °F 54.8 °F 29.76 in NE 1 mph 1 mph 72% 0.00 in 91 W/m2
16:30 64 °F 54.8 °F 29.76 in North 1 mph 1 mph 72% 0.00 in 137 W/m2
16:35 64 °F 55.2 °F 29.76 in NW 1 mph 2 mph 73% 0.00 in 155 W/m2
16:40 64 °F 55.2 °F 29.76 in West 2 mph 2 mph 73% 0.00 in 276 W/m2
16:45 64 °F 55.2 °F 29.75 in NNW 2 mph 2 mph 73% 0.00 in 230 W/m2
16:50 64.1 °F 55.3 °F 29.76 in NW 2 mph 5 mph 73% 0.00 in 162 W/m2
16:55 64.1 °F 55.3 °F 29.76 in ESE 2 mph 5 mph 73% 0.00 in 130 W/m2
17:00 64.2 °F 55.7 °F 29.75 in ESE 2 mph 2 mph 74% 0.00 in 107 W/m2
17:05 64.3 °F 56.2 °F 29.75 in North 1 mph 3 mph 75% 0.00 in 128 W/m2
17:10 64.3 °F 56.6 °F 29.75 in NNW 2 mph 2 mph 76% 0.00 in 163 W/m2
17:15 64.2 °F 56.8 °F 29.75 in NNE 2 mph 3 mph 77% 0.00 in 258 W/m2
17:20 64.2 °F 56.8 °F 29.74 in ENE 2 mph 2 mph 77% 0.00 in 267 W/m2
17:25 64.1 °F 56.7 °F 29.75 in NNW 2 mph 2 mph 77% 0.00 in 81 W/m2
17:30 64 °F 56.6 °F 29.75 in NNW 2 mph 2 mph 77% 0.00 in 70 W/m2
17:35 64 °F 56.3 °F 29.75 in NE 1 mph 2 mph 76% 0.00 in 53 W/m2
17:40 63.8 °F 56.4 °F 29.75 in South 1 mph 2 mph 77% 0.00 in 76 W/m2
17:45 63.7 °F 56.4 °F 29.74 in NNE 1 mph 2 mph 77% 0.00 in 58 W/m2
17:50 63.6 °F 56.3 °F 29.75 in East 1 mph 1 mph 77% 0.00 in 47 W/m2
17:55 63.4 °F 56.1 °F 29.74 in North 1 mph 1 mph 77% 0.00 in 28 W/m2
18:00 63.3 °F 56.3 °F 29.74 in NE 2 mph 2 mph 78% 0.00 in 35 W/m2
18:05 63.1 °F 56.1 °F 29.74 in NNE 2 mph 2 mph 78% 0.00 in 18 W/m2
18:10 62.9 °F 55.9 °F 29.75 in East 2 mph 2 mph 78% 0.00 in 12 W/m2
18:15 62.8 °F 55.8 °F 29.74 in East 2 mph 3 mph 78% 0.00 in 9 W/m2
18:20 62.7 °F 56.1 °F 29.74 in ENE 1 mph 1 mph 79% 0.00 in 7 W/m2
18:25 62.6 °F 56 °F 29.74 in South 1 mph 1 mph 79% 0.00 in 5 W/m2
18:30 62.5 °F 55.9 °F 29.74 in ESE 1 mph 1 mph 79% 0.00 in 0 W/m2
18:35 62.3 °F 55.7 °F 29.75 in NE 1 mph 2 mph 79% 0.00 in 0 W/m2
18:40 62.3 °F 55.7 °F 29.76 in South 1 mph 1 mph 79% 0.00 in 0 W/m2
18:45 62.2 °F 55.6 °F 29.76 in North 1 mph 1 mph 79% 0.00 in 0 W/m2
18:50 62.1 °F 55.9 °F 29.76 in WNW 1 mph 1 mph 80% 0.00 in 0 W/m2
18:55 62.1 °F 55.9 °F 29.77 in NW 1 mph 3 mph 80% 0.00 in 0 W/m2
19:00 62 °F 56.1 °F 29.77 in West 1 mph 1 mph 81% 0.00 in 0 W/m2
19:05 62 °F 56.1 °F 29.77 in NNW 2 mph 2 mph 81% 0.00 in 0 W/m2
19:10 61.8 °F 55.9 °F 29.77 in NNW 1 mph 3 mph 81% 0.00 in 0 W/m2
19:15 61.8 °F 56.2 °F 29.78 in NNW 1 mph 3 mph 82% 0.00 in 0 W/m2
19:20 61.7 °F 55.8 °F 29.78 in WNW 1 mph 1 mph 81% 0.00 in 0 W/m2
19:25 61.5 °F 55.6 °F 29.78 in WSW 2 mph 2 mph 81% 0.00 in 0 W/m2
19:30 61.3 °F 55.1 °F 29.79 in NNW 2 mph 2 mph 80% 0.00 in 0 W/m2
19:35 61 °F 53.7 °F 29.79 in West 3 mph 4 mph 77% 0.00 in 0 W/m2
19:40 60.8 °F 52.8 °F 29.79 in West 3 mph 4 mph 75% 0.00 in 0 W/m2
19:45 60.7 °F 52.7 °F 29.78 in NNW 3 mph 4 mph 75% 0.00 in 0 W/m2
19:50 60.7 °F 53.1 °F 29.78 in WNW 3 mph 3 mph 76% 0.00 in 0 W/m2
19:55 60.7 °F 53.4 °F 29.78 in WNW 3 mph 4 mph 77% 0.00 in 0 W/m2
20:00 60.7 °F 54.1 °F 29.78 in NW 3 mph 3 mph 79% 0.00 in 0 W/m2
20:05 60.8 °F 54.6 °F 29.78 in SSW 2 mph 3 mph 80% 0.00 in 0 W/m2
20:10 60.8 °F 54.6 °F 29.78 in NW 2 mph 3 mph 80% 0.00 in 0 W/m2
20:15 60.7 °F 54.5 °F 29.77 in East 1 mph 4 mph 80% 0.00 in 0 W/m2
20:20 60.7 °F 55.2 °F 29.75 in East 2 mph 3 mph 82% 0.18 in 0 W/m2
20:25 60.6 °F 55.4 °F 29.75 in ENE 2 mph 3 mph 83% 0.12 in 0 W/m2
20:30 60.5 °F 55.3 °F 29.75 in NE 2 mph 2 mph 83% 0.12 in 0 W/m2
20:35 60.4 °F 55.2 °F 29.75 in East 1 mph 2 mph 83% 0.12 in 0 W/m2
20:40 60.2 °F 55 °F 29.75 in WNW 1 mph 1 mph 83% 0.14 in 0 W/m2
20:45 60.1 °F 55.2 °F 29.75 in Calm   1 mph 84% 0.12 in 0 W/m2
20:50 60 °F 55.2 °F 29.75 in Calm     84% 0.07 in 0 W/m2
20:55 59.9 °F 55.4 °F 29.75 in Calm     85% 0.06 in 0 W/m2
21:00 59.8 °F 55.3 °F 29.76 in Calm     85% 0.06 in 0 W/m2
21:05 59.7 °F 55.2 °F 29.76 in Calm     85% 0.08 in 0 W/m2
21:10 59.6 °F 55.4 °F 29.76 in Calm     86% 0.06 in 0 W/m2
21:15 59.5 °F 55.3 °F 29.75 in Calm     86% 0.04 in 0 W/m2
21:20 59.4 °F 55.2 °F 29.75 in Calm     86% 0.04 in 0 W/m2
21:25 59.2 °F 55.3 °F 29.73 in ENE 1 mph 1 mph 87% 0.04 in 0 W/m2
21:30 59.1 °F 55.2 °F 29.73 in NE 1 mph 1 mph 87% 0.04 in 0 W/m2
21:35 59 °F 55.1 °F 29.73 in NE 1 mph 1 mph 87% 0.00 in 0 W/m2
21:40 58.9 °F 55 °F 29.73 in North 1 mph 1 mph 87% 0.00 in 0 W/m2
21:45 58.7 °F 54.8 °F 29.73 in NW 2 mph 3 mph 87% 0.00 in 0 W/m2
21:50 58.6 °F 54.4 °F 29.72 in NE 2 mph 3 mph 86% 0.00 in 0 W/m2
Sand Point, Michigan, USA
Compliments of Weather Underground - 2 mb